Terminal Aerodrome Forecast
Issued by NWS Corpus Christi, TX

Home | Current Version | Previous Version | Text Only | Print | Product List | Glossary On
Versions: 1 2 3 4 5 6 7 8 9 10 11 12 13 14 15 16 17 18 19 20 21 22 23 24
000
FTUS44 KCRP 260539
TAFVCT
TAF
KVCT 260539Z 2606/2706 05006KT P6SM VCTS SCT035CB BKN090
      TEMPO 2606/2608 5SM -TSRA BR BKN025CB OVC060
     FM261100 13006KT P6SM BKN012
     FM261600 15012KT P6SM SCT018 BKN035
     FM261900 14013KT P6SM SCT040 BKN250
     FM270100 14008KT P6SM BKN015
      TEMPO 2701/2704 SCT015 BKN250=

USA.gov is the U.S. government's official web portal to all federal, state and local government web resources and services.